Location: Nairn
(57.5833°N, 3.8667°W)
Time: 03:03:57
(UTC+00:00)

Vanguard 1 Rocket - Pass Details

Date: 02 December 2020
Orbit: 655 x 4221 km, 34.3° (Epoch: 20 January)

Event Time Altitude Azimuth Distance (km) Brightness Sun altitude
Exits shadow 02:09:55 33° 157° (SSE) 5,038 10.8 -47.8°
Drops below altitude 10° 02:22:24 10° 115° (ESE) 5,690 11.6 -46.6°
Sets 02:26:31 0° 107° (ESE) 6,262 12.0 -46.2°
